DECAYED

DMSP 5D-2 F13 DEB, 40524 (Decayed)

Orbit data source: Space-Track

DMSP 5D-2 F13 DEB, 40524 was space debris in SSO originally from a launch on Fri, 24 Mar 1995 UTC launched from the Air Force Western Test Range (AFWTR). Debris objects in space refer to the collection of defunct objects orbiting the Earth. Examples of debris include non-operational satellites, rocket bodies, and fragments generated from explosions, collisions, or faulty payload assembly.

Not visible in the next 10 days
DMSP 5D-2 F13 DEB details
Identifier
40524, 1995-015DL
Orbit
Decayed
Last TLE update6 months ago
Origin
Flag of USUSAF SMC (US)
ManufacturerUnknown
MissionDecayed spacecraft
Bus & MotorUnknown
MassUnknown
Launch date (UTC)
1995-03-24 (30 years ago)
Launch vehicleUnknown
Launch site
Air Force Western Test Range (AFWTR)
Object type
Payload
Rocket body
Debris
Shape & HBRUnknown
Radar Cross SectionSmall (<0.1 m²)

Expand to show TLE details & history

TLE from 6 months ago
0 DMSP 5D-2 F13 DEB
1 40524U 95015DL  24151.65369892  .00251845  00000-0  13178-1 0  9992
2 40524  98.5608 241.4193 0027030 285.4038  74.4204 15.14344088484330
Epoch: 2024-05-30T15:41Z
Definitive object data (Epoch: 2024-05-30T15:41:19.586Z)
Latitude-0.00012°
Longitude117.44366°
Altitude521.054 km
Speed7.606 km/s
True Right ascension16h 05m 40s
True Declination0° 00' 00"
Sunlit
Object was in full shadow at TLE epoch
Visualization observer readout
Observer readout values are unavailable because the object's trajectory could not be propagated. This is usually caused when the trajectory data is faulty or the object's orbit has decayed.
Visualization observer readout
Observer readout values are unavailable because the object's trajectory could not be propagated. This is usually caused when the trajectory data is faulty or the object's orbit has decayed.
Orbital elements
Apogee altitude538.643 km
Perigee altitude501.351 km
Semi-major axis6,898.134 km
Eccentricity0.002703
Inclination98.5608°
RAAN241.4193°
Arg. of periapsis285.4038°
True anomaly74.71903°
Mean anomaly74.4204°
Eccentric anomaly74.56969°
Mean motion3.78831 °/min
BSTAR0.013178
Orbital period95.03 mins
Loading maneuver chart data...

DMSP 5D-2 F13 DEB Visibility forecast

Observer location: undefined°, undefined

This satellite is decayed
Span
Click to sort rows by Start time (UTC) header in descending order
Start Az.
Max El. time (UTC)
Max El. Az.
Max El.
End time (UTC)
End Az.
|